Regional Weather Roundup
Issued by NWS

Home | Current Version | Previous Version | Graphics & Text | Print | Product List | Glossary On
Versions: 1 2 3 4 5 6 7 8 9 10 11 12 13 14 15 16 17 18 19 20 21 22 23 24 25 26 27 28
000
ASUS45 KCYS 250110
RWRWY

WYOMING REGIONAL WEATHER ROUNDUP
NATIONAL WEATHER SERVICE CHEYENNE WY
700 PM MDT TUE APR 24 2018

NOTE:  "FAIR" INDICATES FEW OR NO CLOUDS BELOW 12,000 FEET
WITH NO SIGNIFICANT WEATHER AND/OR OBSTRUCTIONS TO VISIBILITY.

WYZ001-250200-
YELLOWSTONE NATIONAL PARK

CITY           SKY/WX    TMP DP  RH WIND       PRES   REMARKS
LK YELLOWSTONE   N/A     39   8  27 CALM      30.42F
W YELLOWSTONE  NOT AVBL

$$
WYZ002>013-054>058-071-098>099-250200-
NORTHERN WYOMING

CITY           SKY/WX    TMP DP  RH WIND       PRES   REMARKS
JACKSON        FAIR      51  18  27 N8        30.35S
CODY           FAIR      50  17  27 SE6       30.39F
GREYBULL       FAIR      52  28  39 S8        30.38F
WORLAND        FAIR      50  24  36 CALM      30.39F
SHERIDAN       FAIR      51  25  36 S5        30.38F
BUFFALO        FAIR      47  23  38 E5        30.40F
GILLETTE       FAIR      47  24  40 CALM      30.40F
HULETT         FAIR      45  25  45 N3        30.41F
NEWCASTLE      FAIR      43  21  42 N8        30.41F

$$
WYZ014>020-022>026-101>103-250200-
CENTRAL WYOMING

CITY           SKY/WX    TMP DP  RH WIND       PRES   REMARKS
BIG PINEY      FAIR      49  19  30 SE5       30.36F
PINEDALE       FAIR      46  19  34 NW7       30.36F
DUBOIS         FAIR      43  19  39 E7        30.38R
LANDER         FAIR      46  22  38 N7        30.39S
RIVERTON       FAIR      46  23  40 E3        30.40F
CASPER         CLOUDY    41  25  53 N3        30.42S
DOUGLAS        CLOUDY    40  25  55 NW8       30.42F WCI  34

$$
WYZ021-027>030-104>119-250200-
SOUTHERN WYOMING

CITY           SKY/WX    TMP DP  RH WIND       PRES   REMARKS
EVANSTON       FAIR      50  19  29 E13       30.34S
KEMMERER       FAIR      46  18  31 E8        30.38S
FORT BRIDGER   FAIR      49  17  28 E10       30.39S
ROCK SPRINGS   FAIR      43  19  38 NE14      30.39S
DIXON          FAIR      42  19  38 N18G24    30.36S
RAWLINS        MOCLDY    36  20  52 NE7       30.41F WCI  30
SARATOGA       FAIR      36  19  51 N15G21    30.39S WCI  26
LARAMIE        CLOUDY    34  22  61 NE9       30.36F WCI  27
CHEYENNE       CLOUDY    36  24  62 N13G23    30.38S WCI  27
TORRINGTON     CLOUDY    41  31  67 NE10      30.40S
PINE BLUFFS    FAIR      36  28  75 MISG      30.40S

$$




USA.gov is the U.S. government's official web portal to all federal, state and local government web resources and services.